STARLINK-35258

Satellite information

Favourite Embed

Satellite Type and Status

PAYLOADIN ORBIT

Key statistics

Satellite STARLINK-35258 at a glance.

Uptime

24

Days in orbit

Revolutions

≈ 15.5

Per day

Orbit

LEO

Low Earth Orbit

Inclination

53.2

Latest

Satellite identification and parameters

Extended collection of information and parameters for STARLINK-35258.

Object identification

Identified? True

Debris? False

Object name: STARLINK-35258

International designator: 2025-223H

Object number (NORAD): 65861

Object ID (CCSDS): 65861

Country: UNITED STATES OF AMERICA (US)

Current information (Y/N): Y

Orbital parameters

Period: 92.943 minutes

Inclination: 53.1588 deg

SMA: 6796.783 km

Apoapsis: 418.776 km

Periapsis: 418.519 km

RAAN: 197.9549 deg

Eccentricy: 0.00001892

Argument of periapsis: 147.4667 deg

Mean anomaly: 212.6354 deg

Mean motion: 15.49343373 rev/day

Mean motion (dot): 0.00090946 rev/day2

B* drag term: 0.0016223096 1/REarth

Two-line elements (TLE)

Creation date: Oct. 27, 2025, 2:46 a.m.

Reference frame: TEME

Reference center: EARTH

Epoch: Oct. 26, 2025, 10:55 p.m. UTC

TLE line 0: 0 STARLINK-35258

TLE line 1: 1 65861U 25223H 25299.95507537 .00090946 00000-0 16223-2 0 9992

TLE line 2: 2 65861 53.1588 197.9549 0000189 147.4667 212.6354 15.49343373 3698

Live tracking on map

Real-time ground track for satellite STARLINK-35258.

In-orbit conjunctions

There are no conjunctions computed for STARLINK-35258, at the moment. Check back to stay up to date, as we update our databases every day.

Go to all conjunctions

Associated space launch

A batch of 28 satellites for the Starlink mega-constellation - SpaceX's project for space-based Internet communication system.

STARLINK-35258 was lifted into orbit during the mission ‘Falcon 9 Block 5 | Starlink Group 11-39’, on board a Falcon 9 space rocket.

The launch took place on Oct. 3, 2025, 2:06 p.m. from Space Launch Complex 4E.

For more information about the launch, click the button.

Launch to space Falcon 9 Block 5 | Starlink Group 11-39
Falcon 9 Block 5 | Starlink Group 11-39

Agency: SpaceX

Status: Launch Successful

Launch date: Oct. 3, 2025, 2:06 p.m. UTC

Rocket: Falcon 9

Launch pad: Space Launch Complex 4E

Location: Vandenberg SFB, CA, USA

...

Latest news about this satellite

News about space launch
Live coverage: SpaceX to launch 3rd consecutive Falcon 9 rocket from Vandenberg SFB, uninterrupted by a Cape mission

The Starlink 11-39 mission is scheduled to liftoff from pad 4E at Vandenberg Space Force Base at 6:21 a.m. PDT (9:21 a.m. EDT / 1321 UTC). The Falcon 9 rocket will fly on a south-easterly trajectory.

News about space launch
Launch Roundup: Falcon 9 launches Starlink and Kuiper satellites

SpaceX is scheduled to launch up to three times this week, with each mission planned… The post Launch Roundup: Falcon 9 launches Starlink and Kuiper satellites appeared first on NASASpaceFlight.com.


Newsletter sign-up

Weekly statistics, charts and insights to help you stay on top of the space industry.